Location: Newark
(25.6108°S, 54.5803°W)
Time: 17:05:41
(UTC+00:00)

Courier 1B Rocket - Pass Details

Date: 05 November 2020
Orbit: 920 x 1202 km, 28.2° (Epoch: 22 November)

Event Time Altitude Azimuth Distance (km) Brightness Sun altitude
Rises 03:16:28 0° 337° (NNW) 4,030 - -48.6°
Reaches altitude 10° 03:20:30 10° 356° (N) 3,102 - -48.6°
Maximum altitude 03:25:05 17° 33° (NNE) 2,646 - -48.6°
Drops below altitude 10° 03:29:42 10° 69° (ENE) 3,132 - -48.5°
Sets 03:33:46 0° 88° (E) 4,087 - -48.5°
